Wind_Speed
4 4 4 3 4 5 5 5 6 6 6 6 6 7 7 7 8 8 8 8 8 8 7 8 8 8 8 8 8 9 9 9 9 9 9 9 10 10 10 10 11 11 11
5 4 4 4 5 5 6 6 7 7 8 8 8 8 9 9 9 9 9 9 9 9 10 10 10 10 10 10 10 10 10 11 11 11 11 11 11 11 11 11 11 12 12
5 5 5 5 6 7 8 8 9 9 9 9 9 10 10 10 10 10 10 10 11 11 11 12 12 12 12 12 12 12 12 12 12 12 12 12 12 12 13 12 12 12 13
7 7 6 6 7 8 9 9 10 11 10 10 10 11 11 12 12 12 12 12 12 12 13 13 14 14 14 14 13 13 13 13 13 14 14 14 13 13 13 13 13 13 14
8 8 8 8 8 9 9 10 11 12 12 12 12 12 12 13 13 13 13 13 13 14 14 14 15 15 15 15 15 15 15 16 15 15 15 15 15 15 15 15 15 15 15
9 10 10 10 10 10 11 12 13 13 13 13 13 14 14 14 14 14 15 15 15 15 15 16 16 17 17 17 17 17 17 17 17 17 17 17 17 17 17 16 17 17 17
11 11 11 11 11 12 12 13 14 14 14 15 15 16 16 16 16 16 16 17 17 17 17 18 18 19 18 18 19 19 18 18 19 19 19 19 19 19 19 18 18 18 18
11 12 12 12 13 13 14 15 15 15 15 16 17 17 17 18 18 18 18 18 19 19 20 20 20 20 19 19 20 20 20 21 21 22 21 21 21 21 20 20 20 20 20
12 13 13 14 14 15 16 16 17 17 17 18 18 19 18 19 19 19 20 20 20 21 20 20 20 20 20 20 20 21 21 22 23 23 23 23 22 22 22 22 22 21 22
13 14 15 15 16 17 17 17 18 19 19 19 19 19 20 20 20 21 21 21 22 22 21 22 22 22 22 22 21 21 22 23 23 24 24 24 23 23 23 23 23 22 23
15 16 16 16 17 17 17 18 20 20 20 20 21 20 21 21 22 22 22 22 23 23 23 23 23 23 22 22 22 22 23 23 22 24 25 25 24 24 23 23 23 23 24
17 18 18 18 19 19 19 20 20 21 21 22 22 22 22 23 23 24 24 24 24 24 24 24 24 24 24 24 23 24 23 24 23 23 24 25 25 25 25 24 24 24 24
18 19 20 21 21 21 21 22 22 22 23 23 23 24 25 25 25 25 25 25 25 25 25 25 25 25 25 25 25 25 24 24 24 24 23 24 25 25 26 26 25 25 26
20 21 22 22 23 23 24 23 23 23 24 24 24 25 25 26 26 26 26 26 26 26 26 25 25 25 25 25 26 26 26 25 25 25 24 24 25 25 26 26 27 26 26
21 21 23 23 24 25 25 25 24 25 24 25 25 25 26 26 27 27 27 27 27 27 27 26 26 26 25 25 26 26 26 26 26 27 25 25 25 26 26 26 27 27 27
22 22 24 24 24 25 26 26 26 25 25 25 26 26 27 27 27 27 28 28 28 28 28 28 27 27 26 26 26 27 27 27 27 27 26 25 25 26 27 27 27 28 28
23 24 25 25 26 26 27 26 27 26 26 26 26 28 27 28 28 29 28 28 28 28 28 28 27 27 26 26 26 26 26 26 26 26 26 26 25 25 26 27 28 28 29
24 25 25 26 27 27 27 27 27 27 27 27 28 27 27 27 28 28 28 28 28 28 28 28 27 27 27 26 26 26 26 27 27 26 26 26 26 26 26 27 27 28 29
25 26 26 27 27 27 27 27 27 28 27 26 26 27 27 27 27 27 28 28 28 27 28 29 28 27 28 28 28 27 27 28 28 28 27 28 28 28 27 27 28 29 29
25 25 26 26 26 27 28 28 28 28 27 26 26 27 27 27 26 26 26 27 28 27 27 28 27 27 27 28 28 28 28 28 29 29 29 29 30 30 29 29 29 29 30
25 25 25 25 26 27 27 27 27 27 27 27 27 27 28 27 25 26 25 25 25 25 25 25 25 26 26 27 28 28 29 29 29 30 31 31 31 31 31 30 30 30 31
26 25 25 26 27 27 27 27 26 26 26 27 27 27 26 24 24 24 22 23 24 23 24 24 25 25 26 27 27 28 28 29 29 30 31 32 32 32 32 32 32 31 31
25 25 25 26 26 27 27 26 26 26 26 26 26 25 24 23 22 22 22 22 23 23 23 23 24 25 25 26 27 27 27 27 29 29 29 31 32 33 33 33 34 33 33
24 25 25 26 26 26 26 26 26 25 25 25 25 24 23 23 23 23 23 23 24 24 23 23 24 24 24 25 25 26 27 27 28 28 29 30 31 32 33 33 33 34 33
24 25 25 26 26 26 25 25 25 25 25 25 24 23 23 23 23 23 22 23 24 23 23 24 24 24 24 25 25 26 27 27 27 28 28 30 31 32 32 33 34 34 34
24 25 25 25 25 25 25 24 25 25 25 24 24 24 24 24 23 23 23 23 24 23 24 24 24 24 25 25 26 26 26 26 26 27 28 30 31 32 33 33 34 34 35
Wind_Direction
328 326 328 335 332 322 313 307 303 303 303 302 301 301 303 307 310 309 308 305 299 293 290 289 286 284 281 279 275 273 271 270 270 269 265 263 259 256 255 252 250 247 245
323 320 318 326 323 315 308 303 298 298 299 298 299 300 302 305 306 307 305 301 297 293 289 286 283 281 279 276 273 272 270 267 266 265 264 262 261 257 254 252 253 251 248
320 320 317 314 312 308 302 300 297 294 294 294 296 298 300 301 302 303 303 301 298 295 291 285 282 280 279 275 272 271 271 268 264 262 262 261 260 259 256 254 255 252 251
316 309 311 312 306 303 300 297 296 294 294 294 295 296 296 297 298 299 300 298 296 293 291 287 282 280 279 276 273 272 271 269 266 263 262 261 260 259 257 255 256 253 252
313 306 311 311 307 303 300 297 296 293 292 292 293 294 294 294 294 295 297 296 294 292 289 288 285 282 279 277 274 273 271 270 266 264 262 260 260 260 259 257 255 253 252
308 306 311 310 306 302 299 298 295 292 290 291 292 292 292 292 293 295 295 294 292 290 289 287 284 283 281 277 276 275 273 270 266 264 263 261 259 259 258 258 256 252 250
304 307 310 308 304 301 298 296 294 292 290 289 290 290 290 291 291 293 294 292 291 287 287 285 283 282 281 280 276 274 272 269 266 264 263 262 261 259 258 257 255 252 250
300 303 305 303 301 300 296 295 295 292 292 291 290 290 290 289 289 290 292 292 290 290 288 286 284 282 279 278 277 274 271 268 266 266 263 262 261 260 258 256 254 251 250
297 298 297 297 297 296 295 295 296 295 294 293 291 290 290 288 289 289 290 291 290 288 287 286 285 284 281 279 278 276 273 271 267 266 264 262 260 259 258 256 253 252 250
294 294 295 297 297 296 295 295 296 296 294 295 294 292 290 289 288 288 288 289 288 287 287 287 287 285 283 279 278 278 275 273 270 266 263 261 261 259 258 257 255 253 251
293 295 297 297 296 295 294 294 294 295 295 294 293 291 289 289 289 288 288 288 287 287 286 287 286 285 283 281 277 276 275 274 273 268 264 263 261 261 258 256 255 254 252
293 294 296 296 296 296 295 294 293 293 293 293 291 289 288 288 288 288 288 287 286 286 285 285 285 283 282 281 279 276 275 272 273 270 267 264 261 260 258 256 254 254 254
295 295 296 296 296 296 295 293 293 293 292 291 288 287 287 287 287 287 287 287 287 286 284 283 283 282 281 281 280 276 274 272 273 272 268 265 262 260 260 258 256 254 255
297 296 296 295 295 295 295 291 292 294 293 291 289 288 288 287 288 286 287 286 285 284 283 282 281 281 281 280 278 275 274 272 272 271 268 266 264 261 260 259 257 255 256
295 296 297 295 294 293 292 291 290 292 291 293 291 288 287 287 288 287 287 286 284 283 282 282 280 280 280 278 277 276 275 273 272 271 268 266 265 262 261 260 258 257 256
294 294 295 295 293 293 295 294 290 291 291 293 294 290 286 286 286 287 286 284 283 283 282 282 282 282 280 278 277 277 277 275 273 272 269 265 263 263 261 260 258 257 257
293 294 294 294 293 294 295 296 294 294 295 293 293 292 289 285 286 287 288 286 284 282 282 281 282 282 281 280 278 277 276 275 273 271 268 267 264 263 263 262 261 259 258
294 295 295 294 295 296 295 295 294 293 295 295 292 291 291 288 287 287 287 285 282 280 280 281 282 282 281 280 279 279 277 275 272 270 268 268 265 264 264 263 262 261 259
294 294 293 294 294 294 295 295 295 296 296 295 293 292 292 290 288 289 288 286 282 280 279 279 279 278 279 279 280 280 277 274 271 268 267 267 265 265 265 264 262 261 259
292 293 293 293 294 295 294 294 294 295 295 295 294 293 292 291 290 289 289 287 283 282 281 280 278 278 279 279 280 279 278 273 270 268 267 266 265 265 266 265 263 261 259
293 294 293 293 294 295 294 293 294 294 294 295 295 295 295 292 290 289 287 286 286 286 284 282 281 280 280 280 280 280 277 274 270 268 266 266 266 265 265 264 264 262 260
293 293 292 294 294 294 295 294 294 292 293 294 294 294 295 293 292 291 288 285 285 287 286 283 284 283 281 281 281 281 278 274 272 270 267 266 265 265 265 264 265 263 261
293 292 292 293 294 294 293 293 293 293 293 294 294 294 292 291 291 291 290 289 286 287 287 285 286 286 285 284 282 281 280 278 274 270 269 268 266 266 266 267 264 263 262
292 293 292 293 295 295 293 294 296 295 295 295 295 294 292 291 291 291 292 292 291 288 288 288 287 288 289 288 285 283 281 279 276 271 270 269 268 268 268 267 265 264 263
292 294 293 295 295 295 294 295 296 296 295 294 293 293 293 292 293 292 294 293 294 291 291 290 289 290 290 289 287 284 282 280 278 274 272 271 271 270 269 266 265 264 262
296 297 297 296 295 295 297 297 297 296 295 293 293 292 293 293 294 292 293 293 295 293 292 294 292 291 290 289 288 286 284 284 281 278 276 273 272 271 269 267 265 264 262
Height
5892 5891 5890 5890 5889 5889 5888 5888 5887 5886 5885 5884 5883 5882 5881 5880 5879 5878 5877 5876 5876 5875 5874 5874 5873 5873 5873 5872 5872 5872 5872 5872 5872 5872 5871 5871 5871 5871 5872 5872 5871 5872 5872
5891 5889 5889 5888 5888 5887 5887 5886 5885 5885 5883 5882 5881 5880 5879 5878 5877 5877 5876 5875 5874 5873 5872 5872 5871 5871 5870 5870 5869 5869 5869 5869 5869 5869 5869 5869 5869 5869 5869 5869 5869 5870 5870
5889 5888 5887 5886 5886 5885 5885 5884 5884 5883 5881 5880 5879 5879 5877 5876 5875 5874 5873 5872 5872 5871 5870 5869 5869 5868 5868 5867 5867 5866 5866 5866 5866 5866 5866 5866 5866 5866 5866 5867 5867 5867 5868
5887 5886 5886 5885 5884 5883 5882 5882 5881 5880 5879 5878 5877 5876 5875 5874 5873 5872 5871 5870 5869 5868 5867 5867 5866 5865 5865 5864 5864 5863 5863 5863 5863 5863 5863 5863 5863 5863 5864 5864 5864 5864 5865
5885 5885 5884 5883 5882 5881 5880 5879 5879 5878 5877 5875 5874 5873 5872 5871 5870 5869 5868 5867 5866 5865 5864 5864 5863 5862 5862 5861 5860 5860 5860 5860 5859 5859 5859 5860 5860 5860 5861 5861 5861 5861 5862
5884 5883 5882 5881 5880 5879 5878 5877 5876 5875 5874 5873 5872 5870 5869 5868 5867 5866 5865 5864 5863 5862 5861 5861 5860 5859 5858 5857 5857 5856 5856 5856 5855 5855 5856 5856 5856 5857 5857 5857 5857 5858 5858
5882 5881 5880 5879 5878 5877 5876 5874 5873 5872 5871 5870 5868 5867 5866 5865 5864 5863 5862 5860 5859 5858 5857 5857 5856 5855 5854 5853 5853 5852 5852 5852 5851 5851 5851 5852 5852 5853 5853 5853 5853 5854 5854
5879 5878 5877 5876 5875 5874 5873 5871 5870 5869 5867 5866 5865 5864 5862 5861 5860 5859 5858 5857 5855 5854 5853 5852 5851 5850 5850 5849 5848 5848 5847 5847 5847 5847 5847 5847 5848 5848 5849 5849 5849 5850 5850
5877 5876 5874 5873 5872 5871 5869 5868 5867 5865 5864 5862 5861 5860 5858 5857 5855 5854 5853 5852 5851 5849 5848 5847 5847 5846 5845 5844 5843 5843 5843 5842 5842 5842 5841 5842 5842 5843 5844 5844 5845 5845 5846
5874 5873 5871 5870 5869 5867 5866 5865 5863 5862 5860 5858 5857 5855 5854 5853 5851 5850 5849 5848 5846 5845 5844 5842 5841 5841 5840 5839 5838 5838 5837 5837 5836 5836 5836 5836 5837 5838 5838 5839 5840 5840 5841
5872 5870 5868 5867 5865 5864 5862 5861 5859 5857 5856 5854 5852 5851 5849 5848 5846 5845 5844 5842 5841 5840 5839 5837 5836 5835 5834 5834 5833 5832 5832 5832 5831 5831 5831 5831 5832 5832 5833 5833 5834 5835 5835
5868 5867 5865 5864 5862 5860 5858 5857 5855 5853 5851 5849 5848 5846 5844 5843 5841 5840 5838 5837 5836 5834 5833 5832 5830 5829 5828 5828 5827 5826 5826 5826 5826 5825 5825 5826 5826 5827 5827 5828 5828 5829 5830
5865 5863 5861 5860 5858 5856 5854 5852 5850 5848 5846 5844 5842 5841 5839 5838 5836 5834 5833 5831 5830 5828 5827 5826 5824 5823 5822 5822 5821 5821 5820 5820 5820 5820 5819 5820 5820 5821 5822 5822 5823 5823 5824
5861 5860 5858 5856 5854 5851 5849 5847 5844 5842 5840 5839 5837 5835 5834 5832 5830 5828 5827 5825 5824 5822 5821 5820 5819 5818 5816 5815 5815 5815 5814 5814 5814 5814 5813 5814 5814 5815 5815 5816 5816 5817 5818
5857 5855 5853 5851 5848 5846 5844 5842 5839 5837 5835 5833 5831 5829 5828 5826 5824 5822 5820 5819 5817 5816 5815 5814 5813 5812 5811 5809 5809 5808 5808 5808 5808 5808 5807 5808 5808 5808 5809 5810 5810 5811 5812
5852 5850 5848 5846 5844 5841 5839 5836 5834 5832 5830 5828 5826 5824 5822 5820 5818 5816 5814 5812 5811 5810 5809 5808 5807 5806 5805 5804 5803 5802 5802 5802 5801 5801 5801 5801 5801 5802 5802 5803 5804 5805 5805
5848 5846 5844 5841 5839 5836 5834 5831 5828 5826 5824 5822 5820 5818 5816 5813 5811 5810 5808 5806 5805 5803 5802 5801 5801 5799 5798 5797 5796 5796 5795 5795 5795 5794 5794 5794 5794 5795 5796 5797 5797 5798 5799
5843 5841 5838 5836 5833 5831 5828 5826 5823 5821 5819 5816 5814 5812 5810 5808 5806 5804 5801 5800 5798 5797 5796 5795 5794 5793 5792 5791 5790 5789 5789 5788 5788 5788 5788 5787 5788 5788 5789 5789 5790 5791 5792
5837 5835 5833 5830 5828 5825 5823 5820 5818 5816 5813 5810 5808 5806 5804 5802 5800 5797 5795 5793 5791 5790 5789 5788 5787 5786 5785 5784 5783 5782 5782 5781 5781 5781 5781 5781 5781 5781 5782 5782 5783 5784 5784
5832 5830 5827 5824 5822 5820 5817 5814 5812 5810 5807 5804 5802 5800 5798 5795 5793 5791 5788 5786 5784 5783 5782 5781 5779 5779 5778 5777 5776 5775 5774 5774 5774 5774 5774 5774 5774 5774 5774 5775 5775 5776 5777
5827 5824 5822 5819 5817 5814 5811 5808 5805 5803 5800 5798 5796 5793 5791 5788 5786 5784 5782 5781 5779 5777 5775 5774 5773 5772 5770 5769 5769 5767 5766 5766 5765 5766 5766 5766 5766 5767 5767 5767 5767 5768 5769
5821 5819 5816 5814 5811 5808 5805 5802 5799 5797 5794 5792 5790 5787 5784 5782 5780 5778 5777 5775 5773 5771 5770 5768 5767 5765 5764 5763 5761 5759 5758 5758 5758 5757 5758 5758 5758 5759 5759 5759 5759 5760 5760
5815 5812 5810 5807 5805 5802 5798 5796 5793 5790 5788 5786 5784 5781 5779 5777 5775 5773 5771 5769 5767 5766 5764 5762 5761 5759 5757 5756 5754 5752 5751 5751 5750 5750 5750 5749 5749 5750 5750 5750 5751 5751 5751
5809 5806 5804 5801 5799 5796 5793 5790 5787 5785 5782 5780 5778 5775 5773 5771 5769 5767 5766 5764 5762 5760 5758 5756 5754 5753 5751 5749 5747 5745 5744 5743 5742 5742 5742 5741 5741 5741 5741 5741 5741 5742 5742
5803 5800 5798 5795 5792 5789 5787 5784 5781 5779 5776 5774 5772 5770 5768 5766 5763 5761 5760 5758 5756 5754 5752 5749 5748 5746 5744 5742 5740 5739 5737 5735 5734 5733 5733 5733 5732 5731 5732 5732 5732 5732 5732
5797 5794 5791 5788 5786 5783 5780 5778 5775 5773 5770 5768 5766 5764 5762 5759 5757 5755 5754 5752 5750 5748 5746 5744 5742 5740 5738 5735 5733 5732 5730 5728 5726 5725 5725 5724 5723 5722 5722 5722 5722 5722 5722